Marion, IN

9:15 AM EDT on August 19, 2017 (GMT -0400)
Marion Municipal

Weather History for KMZZ - March, 2014

Change the Weather History Date:

Sunday, March 9, 2014

  Actual Average (KMIE) Record (KMIE)
Temperature  
Mean Temperature 30 °F -  
Max Temperature 52 °F 46 °F 77 °F (1974)
Min Temperature 22 °F 28 °F -7 °F (1984)
Degree Days  
Heating Degree Days 34    
Moisture  
Dew Point 23 °F    
Average Humidity 76    
Maximum Humidity 89    
Minimum Humidity 62    
Precipitation  
Precipitation 0.00 in - - ()
Sea Level Pressure  
Sea Level Pressure 30.15 in    
Wind  
Wind Speed 8 mph (WSW)    
Max Wind Speed 17 mph    
Max Gust Speed 20 mph    
Visibility 10 miles    
Events      
Averages and records for this station are not official NWS values.
T = Trace of Precipitation, MM = Missing Value Source: NWS Daily Summary

Daily Weather History Graph

Daily Weather History Graph

Search for Another Location

Airport or City:

Trip Planner

Search our weather history database for the weather conditions in past years. The results will help you decide how hot, cold, wet, or windy it might be!

Date:

Astronomy

Mar. 09, 2014 Rise Set
Actual Time 8:03 AM EDT 7:43 PM EDT
Civil Twilight 7:36 AM EDT 8:10 PM EDT
Nautical Twilight 7:05 AM EDT 8:41 PM EDT
Astronomical Twilight 6:33 AM EDT 9:13 PM EDT
Moon 1:34 PM EDT (3/9) 3:30 AM EDT (3/9)
Length of Visible Light 12h 33m
Length of Day
11h 39m
First Quarter, 61% of the Moon is Illuminated
Mar 9
First Quarter
Mar 16
Full
Mar 23
Last Quarter
Mar 30
New
Apr 7
First Quarter

Hourly Weather History & Observations

Time (EDT) Temp. Windchill Dew Point Humidity Pressure Visibility Wind Dir Wind Speed Gust Speed Precip Events Conditions
12:15 AM 26.2 °F 17.1 °F 20.3 °F 78% 30.22 in 10.0 mi NNW 9.2 mph - N/A   Overcast
12:35 AM 25.9 °F 16.6 °F 19.6 °F 77% 30.22 in 10.0 mi NNW 9.2 mph - N/A   Mostly Cloudy
12:55 AM 25.2 °F 15.1 °F 18.9 °F 77% 30.22 in 10.0 mi NNW 10.4 mph - N/A   Scattered Clouds
1:15 AM 24.6 °F 15.8 °F 18.5 °F 78% 30.22 in 10.0 mi NNW 8.1 mph - N/A   Clear
1:35 AM 24.3 °F 16.3 °F 18.5 °F 79% 30.22 in 10.0 mi NNW 6.9 mph - N/A   Clear
1:50 AM 23.9 °F 15.0 °F 18.3 °F 79% 30.23 in 10.0 mi NNW 8.1 mph - N/A   Clear
3:15 AM 23.7 °F 16.6 °F 18.1 °F 79% 30.23 in 10.0 mi NNW 5.8 mph - N/A   Clear
3:35 AM 23.5 °F 15.4 °F 18.0 °F 79% 30.24 in 10.0 mi NNW 6.9 mph - N/A   Clear
3:55 AM 23.4 °F 15.2 °F 17.6 °F 79% 30.24 in 10.0 mi NNW 6.9 mph - N/A   Clear
4:15 AM 23.0 °F 17.0 °F 17.6 °F 80% 30.22 in 10.0 mi North 4.6 mph - N/A   Clear
4:35 AM 23.0 °F 18.4 °F 18.0 °F 81% 30.23 in 10.0 mi NNW 3.5 mph - N/A   Clear
4:55 AM 23.0 °F 15.8 °F 18.3 °F 82% 30.23 in 10.0 mi NNW 5.8 mph - N/A   Clear
5:15 AM 22.8 °F 16.7 °F 18.0 °F 82% 30.23 in 10.0 mi NNW 4.6 mph - N/A   Clear
5:35 AM 22.6 °F - 18.0 °F 82% 30.23 in 10.0 mi Calm Calm - N/A   Clear
5:55 AM 22.5 °F 17.8 °F 18.3 °F 84% 30.24 in 10.0 mi NW 3.5 mph - N/A   Clear
6:15 AM 22.6 °F 16.5 °F 18.7 °F 85% 30.25 in 10.0 mi WNW 4.6 mph - N/A   Clear
6:35 AM 22.3 °F 16.1 °F 18.9 °F 87% 30.25 in 7.0 mi WNW 4.6 mph - N/A   Clear
6:55 AM 22.1 °F 17.4 °F 18.9 °F 87% 30.25 in 10.0 mi WNW 3.5 mph - N/A   Clear
7:15 AM 22.1 °F 17.4 °F 19.0 °F 88% 30.25 in 10.0 mi West 3.5 mph - N/A   Clear
7:35 AM 22.1 °F 15.9 °F 19.2 °F 89% 30.26 in 10.0 mi WNW 4.6 mph - N/A   Clear
7:55 AM 22.1 °F 15.9 °F 19.4 °F 89% 30.26 in 10.0 mi West 4.6 mph - N/A   Clear
8:15 AM 22.5 °F 15.1 °F 19.8 °F 89% 30.27 in 7.0 mi West 5.8 mph - N/A   Clear
8:35 AM 22.8 °F 16.7 °F 19.9 °F 89% 30.27 in 7.0 mi WSW 4.6 mph - N/A   Clear
8:55 AM 23.2 °F 16.0 °F 20.3 °F 89% 30.27 in 7.0 mi West 5.8 mph - N/A   Clear
9:15 AM 23.7 °F 17.8 °F 20.3 °F 87% 30.28 in 7.0 mi WSW 4.6 mph - N/A   Clear
9:35 AM 24.3 °F 18.4 °F 20.8 °F 87% 30.28 in 10.0 mi WSW 4.6 mph - N/A   Clear
9:55 AM 25.2 °F 19.5 °F 21.2 °F 85% 30.28 in 10.0 mi SW 4.6 mph - N/A   Clear
10:15 AM 25.9 °F 20.3 °F 21.6 °F 84% 30.28 in 10.0 mi WSW 4.6 mph - N/A   Clear
10:35 AM 26.6 °F 21.2 °F 22.1 °F 83% 30.28 in 7.0 mi WSW 4.6 mph - N/A   Scattered Clouds
10:55 AM 27.7 °F 20.4 °F 22.6 °F 81% 30.27 in 10.0 mi SW 6.9 mph - N/A   Scattered Clouds
11:15 AM 28.6 °F 21.5 °F 22.5 °F 78% 30.26 in 10.0 mi WSW 6.9 mph - N/A   Clear
11:35 AM 29.1 °F 22.1 °F 21.7 °F 74% 30.26 in 7.0 mi SW 6.9 mph - N/A   Clear
11:55 AM 30.0 °F 22.4 °F 21.2 °F 70% 30.24 in 10.0 mi SW 8.1 mph - N/A   Clear
12:15 PM 30.7 °F 23.3 °F 21.9 °F 70% 30.23 in 7.0 mi SSW 8.1 mph - N/A   Clear
12:35 PM 31.6 °F 24.4 °F 22.8 °F 70% 30.22 in 10.0 mi SW 8.1 mph - N/A   Clear
12:55 PM 32.0 °F 23.0 °F 22.3 °F 67% 30.21 in 10.0 mi SSW 11.5 mph - N/A   Clear
1:15 PM 32.4 °F 24.0 °F 22.3 °F 66% 30.21 in 10.0 mi SW 10.4 mph - N/A   Clear
1:35 PM 33.1 °F 24.9 °F 23.2 °F 67% 30.20 in 10.0 mi West 10.4 mph - N/A   Clear
1:55 PM 33.8 °F 24.8 °F 23.5 °F 66% 30.20 in 10.0 mi WSW 12.7 mph - N/A   Clear
2:15 PM 34.0 °F 25.5 °F 23.4 °F 65% 30.19 in 10.0 mi WSW 11.5 mph 17.3 mph N/A   Clear
2:35 PM 34.9 °F 26.6 °F 24.6 °F 66% 30.17 in 10.0 mi WSW 11.5 mph - N/A   Clear
2:55 PM 35.1 °F 26.9 °F 24.8 °F 66% 30.17 in 10.0 mi WSW 11.5 mph - N/A   Scattered Clouds
3:15 PM 36.0 °F 27.1 °F 25.5 °F 66% 30.15 in 10.0 mi WSW 13.8 mph 17.3 mph N/A   Scattered Clouds
3:35 PM 36.5 °F 27.8 °F 26.2 °F 66% 30.13 in 10.0 mi WSW 13.8 mph 18.4 mph N/A   Clear
3:55 PM 36.3 °F 28.0 °F 26.4 °F 67% 30.12 in 10.0 mi WSW 12.7 mph 17.3 mph N/A   Scattered Clouds
4:15 PM 36.9 °F 29.1 °F 27.0 °F 67% 30.11 in 10.0 mi WSW 11.5 mph 17.3 mph N/A   Scattered Clouds
4:35 PM 37.6 °F 28.1 °F 26.8 °F 65% 30.11 in 10.0 mi West 17.3 mph - N/A   Clear
4:55 PM 38.7 °F 30.1 °F 27.3 °F 64% 30.09 in 7.0 mi WSW 15.0 mph - N/A   Scattered Clouds
5:15 PM 38.5 °F 30.3 °F 27.1 °F 64% 30.08 in 10.0 mi WSW 13.8 mph - N/A   Clear
5:35 PM 38.7 °F 30.5 °F 27.0 °F 63% 30.07 in 10.0 mi WSW 13.8 mph - N/A   Clear
5:55 PM 39.0 °F 30.3 °F 27.1 °F 62% 30.07 in 7.0 mi West 16.1 mph - N/A   Clear
6:15 PM 38.5 °F 31.1 °F 27.3 °F 64% 30.06 in 10.0 mi WSW 11.5 mph - N/A   Clear
6:35 PM 38.1 °F 31.7 °F 27.9 °F 67% 30.03 in 10.0 mi SW 9.2 mph - N/A   Clear
6:55 PM 37.6 °F 32.3 °F 28.6 °F 70% 30.04 in 10.0 mi SW 6.9 mph - N/A   Clear
7:15 PM 37.2 °F 31.9 °F 28.9 °F 72% 30.02 in 7.0 mi SW 6.9 mph - N/A   Clear
7:35 PM 36.7 °F 32.9 °F 28.4 °F 72% 30.03 in 7.0 mi SW 4.6 mph - N/A   Clear
7:55 PM 35.6 °F 29.9 °F 28.2 °F 75% 30.02 in 10.0 mi SSW 6.9 mph - N/A   Clear
8:15 PM 34.9 °F 28.3 °F 28.2 °F 77% 30.01 in 10.0 mi SSW 8.1 mph - N/A   Clear
8:35 PM 35.1 °F 27.9 °F 28.4 °F 77% 30.00 in 10.0 mi SSW 9.2 mph - N/A   Clear
8:55 PM 35.4 °F 28.4 °F 28.4 °F 76% 30.00 in 10.0 mi SW 9.2 mph - N/A   Clear
9:15 PM 35.6 °F 28.6 °F 28.0 °F 74% 29.99 in 10.0 mi SSW 9.2 mph - N/A   Clear
9:35 PM 35.1 °F 29.3 °F 28.2 °F 76% 30.00 in 10.0 mi SW 6.9 mph - N/A   Clear
9:55 PM 35.4 °F 27.8 °F 28.2 °F 75% 29.98 in 10.0 mi SW 10.4 mph - N/A   Clear
10:15 PM 36.0 °F 28.5 °F 28.0 °F 73% 29.98 in 10.0 mi SW 10.4 mph - N/A   Clear
10:35 PM 35.8 °F 28.3 °F 27.7 °F 72% 29.98 in 10.0 mi SW 10.4 mph - N/A   Clear
10:55 PM 35.1 °F 27.9 °F 27.5 °F 74% 29.98 in 10.0 mi SSW 9.2 mph - N/A   Clear
11:15 PM 34.7 °F 26.9 °F 27.7 °F 76% 29.97 in 10.0 mi SSW 10.4 mph - N/A   Clear
11:35 PM 34.7 °F 25.9 °F 28.0 °F 77% 29.96 in 10.0 mi SSW 12.7 mph - N/A   Clear
11:55 PM 35.1 °F 25.9 °F 28.2 °F 76% 29.95 in 10.0 mi SW 13.8 mph - N/A   Clear
12:15 AM 35.2 °F 26.2 °F 28.8 °F 77% 29.94 in 7.0 mi SSW 13.8 mph - N/A   Clear
12:35 AM 35.6 °F 25.9 °F 29.3 °F 78% 29.94 in 10.0 mi SW 16.1 mph 19.6 mph N/A   Clear
12:55 AM 35.6 °F 26.6 °F 29.3 °F 78% 29.94 in 10.0 mi SW 13.8 mph - N/A   Clear